Location: Baia Mare
(47.6567°N, 23.5850°E)
Time: 12:16:20
(UTC+03:00)

ISS - Pass Details

Date: 07 September 2019
Orbit: 418 x 420 km, 51.6° (Epoch: 10 August)

Event Time Altitude Azimuth Distance (km) Brightness Sun altitude
Exits shadow 03:36:02 18° 61° (ENE) 1,135 -0.9 -28.8°
Drops below altitude 10° 03:37:06 10° 64° (ENE) 1,548 -0.1 -28.6°
Enters shadow 04:35:06 -65° 261° (W) 12,058 3.6 -21.7°
